GOES 7 [-]

Last updated on Aug. 14, 2020, 5:30 a.m. UTC

1 17561U 87022A   20225.91894911  .00000002  00000-0  00000-0 0  9994
2 17561  14.7489 354.4071 0006209  25.6968 343.7022  0.99889084105644
UTC
Height (km)
Latitude
Longitude
Inclination
Orbital Period
UTC large
Height (km)
Speed (km/s)
/
Latitude / Longitude
Inclination (degrees)
Orbital Period (minutes)
Azimuth
Elevation
Range (km)
Doppler Factor
iOS Compass Heading
iOS Angle

Next 30 passes for location: Hong Kong

Rise time Rise Azimuth (degrees) Set time Set Azimuth (degrees) Duration Max altitude (degrees)

No matching passes for this satellites